World > North America > United States > North Dakota

Kelso, North Dakota Regional Weather

Lat: 47.32N, Lon: 97.03W
Wx Zone: NDZ030Web Search

Helpful Tip: Type the letters wx in the search engine next time you need to find us.

Feedback


°F Click to change Kelso hourly weather to Imperial units.Click to change Kelso hourly weather to Metric units. °C
Kelso Weather Map
UTC Time: 5/11/2021, 07:56
Your Time:

Kelso, ND Regional Weather

Expires:202105110800;;933047
ASUS43 KBIS 110710
RWRND 

NORTH DAKOTA REGIONAL WEATHER ROUNDUP
NATIONAL WEATHER SERVICE BISMARCK ND
200 AM CDT TUE MAY 11 2021

NOTE: "FAIR" INDICATES FEW OR NO CLOUDS BELOW 12,000 FEET WITH NO
SIGNIFICANT WEATHER AND/OR OBSTRUCTIONS TO VISIBILITY.



NDZ022-023-025-028>030-036>039-047>053-110800-
SOUTHEAST NORTH DAKOTA
  
CITY           SKY/WX    TMP DP  RH WIND       PRES   REMARKS
FARGO          CLEAR     36  18  48 S3        30.31S                  
JAMESTOWN      CLEAR     34  19  54 CALM      30.30R                  
$$ 

  

SKY/WX - Weather  TMP - Temperature  DP - Dew Point  RH - Relative Humidity
WIND - Wind Direction/Speed PRES - Barometric Pressure VSB - Visibility
WCI - Wind Chill Index E13G22 Wind - East Wind 13 mph/Gusts of 22 mph